AAL144 CYYZ-KMCO

Flight info

Callsign AAL144
Flight time 2h 15m
Altitude 38000
Route BETES3 AIRRA Q103 SLOJO EFFAY Q83 ROYCO Q85 LPERD SNFLD3
Aircraft B789/H-L/L

Departure

Time 2026-05-05 17:44
Airport Toronto Pearson International Airport (CYYZ)

Arrival

Time 2026-05-05 19:59
Airport Orlando International Airport (KMCO)
Time Latitude Longitude Altitude Speed Heading
2026-05-05 17:34 43.68205 -79.62095 587 ft 0 kts 69°
2026-05-05 17:38 43.68201 -79.62109 587 ft 2 kts 69°
2026-05-05 17:38 43.68195 -79.62133 587 ft 3 kts 69°
2026-05-05 17:38 43.68190 -79.62150 587 ft 3 kts 69°
2026-05-05 17:39 43.68183 -79.62177 587 ft 3 kts 69°
2026-05-05 17:39 43.68176 -79.62203 587 ft 3 kts 69°
2026-05-05 17:39 43.68174 -79.62210 587 ft 0 kts 69°
2026-05-05 17:40 43.68187 -79.62191 587 ft 4 kts 29°
2026-05-05 17:40 43.68229 -79.62213 587 ft 9 kts 306°
2026-05-05 17:40 43.68268 -79.62343 587 ft 23 kts 273°
2026-05-05 17:40 43.68340 -79.62563 587 ft 29 kts 317°
2026-05-05 17:41 43.68451 -79.62709 587 ft 16 kts 316°
2026-05-05 17:41 43.68527 -79.62809 587 ft 18 kts 316°
2026-05-05 17:41 43.68666 -79.62991 587 ft 37 kts 316°
2026-05-05 17:41 43.68840 -79.63219 587 ft 32 kts 316°
2026-05-05 17:42 43.68986 -79.63410 587 ft 24 kts 316°
2026-05-05 17:42 43.69111 -79.63494 587 ft 17 kts 18°
2026-05-05 17:42 43.69222 -79.63429 587 ft 19 kts 16°
2026-05-05 17:42 43.69339 -79.63422 587 ft 17 kts 343°
2026-05-05 17:43 43.69395 -79.63521 587 ft 8 kts 257°
2026-05-05 17:43 43.69370 -79.63566 587 ft 25 kts 230°
2026-05-05 17:43 43.69049 -79.64048 587 ft 112 kts 226°
2026-05-05 17:43 43.68313 -79.65111 589 ft 193 kts 226°
2026-05-05 17:44 43.67244 -79.66655 908 ft 246 kts 226°
2026-05-05 17:44 43.65971 -79.68495 2083 ft 277 kts 226°
2026-05-05 17:44 43.64512 -79.70382 3711 ft 311 kts 220°
2026-05-05 17:44 43.62519 -79.71876 3768 ft 327 kts 198°
2026-05-05 17:45 43.60450 -79.72426 4640 ft 288 kts 187°
2026-05-05 17:45 43.58508 -79.72578 5346 ft 278 kts 180°
2026-05-05 17:45 43.56602 -79.72291 6096 ft 274 kts 173°
2026-05-05 17:45 43.54731 -79.71782 6853 ft 273 kts 172°
2026-05-05 17:46 43.52875 -79.71190 7600 ft 274 kts 171°
2026-05-05 17:46 43.51021 -79.70564 8349 ft 275 kts 170°
2026-05-05 17:46 43.49153 -79.69922 9102 ft 277 kts 170°
2026-05-05 17:46 43.47275 -79.69313 9853 ft 280 kts 171°
2026-05-05 17:47 43.45290 -79.68769 10643 ft 306 kts 177°
2026-05-05 17:47 43.43053 -79.68809 11468 ft 338 kts 189°
2026-05-05 17:47 43.40651 -79.69329 12256 ft 354 kts 194°
2026-05-05 17:47 43.38235 -79.70046 13008 ft 356 kts 196°
2026-05-05 17:48 43.35801 -79.70857 13768 ft 363 kts 197°
2026-05-05 17:48 43.33369 -79.71704 14515 ft 368 kts 198°
2026-05-05 17:48 43.30874 -79.72592 15270 ft 372 kts 198°
2026-05-05 17:48 43.28349 -79.73498 16025 ft 377 kts 198°
2026-05-05 17:49 43.25806 -79.74434 16779 ft 381 kts 199°
2026-05-05 17:49 43.23239 -79.75406 17533 ft 385 kts 199°
2026-05-05 17:49 43.20609 -79.76415 18297 ft 389 kts 199°
2026-05-05 17:49 43.18020 -79.77415 19041 ft 394 kts 199°
2026-05-05 17:50 43.15364 -79.78444 19797 ft 398 kts 199°
2026-05-05 17:50 43.12686 -79.79483 20550 ft 402 kts 199°
2026-05-05 17:50 43.09977 -79.80538 21304 ft 407 kts 199°
2026-05-05 17:50 43.07243 -79.81604 22056 ft 411 kts 199°
2026-05-05 17:51 43.04470 -79.82689 22811 ft 416 kts 199°
2026-05-05 17:51 43.01673 -79.83770 23564 ft 421 kts 199°
2026-05-05 17:51 42.98833 -79.84843 24318 ft 426 kts 198°
2026-05-05 17:51 42.95952 -79.85919 25073 ft 431 kts 198°
2026-05-05 17:52 42.93044 -79.87002 25827 ft 435 kts 198°
2026-05-05 17:52 42.90105 -79.88097 26580 ft 440 kts 198°
2026-05-05 17:52 42.87131 -79.89165 27333 ft 445 kts 197°
2026-05-05 17:52 42.84105 -79.90162 28086 ft 451 kts 196°
2026-05-05 17:53 42.81028 -79.91131 28840 ft 456 kts 196°
2026-05-05 17:53 42.77909 -79.92090 29593 ft 461 kts 195°
2026-05-05 17:53 42.74783 -79.93044 30174 ft 471 kts 195°
2026-05-05 17:53 42.71565 -79.94023 30686 ft 476 kts 195°
2026-05-05 17:54 42.68322 -79.95009 31188 ft 478 kts 195°
2026-05-05 17:54 42.65025 -79.96011 31695 ft 481 kts 195°
2026-05-05 17:54 42.61789 -79.96997 32189 ft 484 kts 195°
2026-05-05 17:54 42.58446 -79.98016 32697 ft 488 kts 195°
2026-05-05 17:55 42.55129 -79.99031 33197 ft 491 kts 195°
2026-05-05 17:55 42.51818 -80.00045 33692 ft 494 kts 195°
2026-05-05 17:55 42.48416 -80.01090 34198 ft 497 kts 195°
2026-05-05 17:55 42.45059 -80.02082 34693 ft 501 kts 194°
2026-05-05 17:56 42.41621 -80.02944 35195 ft 503 kts 192°
2026-05-05 17:56 42.38165 -80.03705 35633 ft 506 kts 191°
2026-05-05 17:56 42.34682 -80.04359 36018 ft 505 kts 190°
2026-05-05 17:56 42.31198 -80.04937 36391 ft 501 kts 189°
2026-05-05 17:57 42.27751 -80.05464 36760 ft 496 kts 189°
2026-05-05 17:57 42.24326 -80.05964 37130 ft 493 kts 189°
2026-05-05 17:57 42.20896 -80.06347 37502 ft 492 kts 186°
2026-05-05 17:57 42.17482 -80.06552 37819 ft 493 kts 185°
2026-05-05 17:58 42.14038 -80.06663 37937 ft 495 kts 184°
2026-05-05 17:58 42.07159 -80.06748 37998 ft 493 kts 183°
2026-05-05 17:59 42.00348 -80.06759 37999 ft 491 kts 183°
2026-05-05 17:59 41.93514 -80.06750 38000 ft 490 kts 183°
2026-05-05 18:00 41.86697 -80.06737 38000 ft 489 kts 183°
2026-05-05 18:00 41.79891 -80.06725 38000 ft 488 kts 183°
2026-05-05 18:01 41.73139 -80.06715 38000 ft 488 kts 183°
2026-05-05 18:01 41.66306 -80.06709 38000 ft 488 kts 183°
2026-05-05 18:02 41.59562 -80.06705 38000 ft 488 kts 183°
2026-05-05 18:02 41.52766 -80.06705 38000 ft 488 kts 183°
2026-05-05 18:03 41.45981 -80.06708 38000 ft 488 kts 183°
2026-05-05 18:03 41.39193 -80.06714 38000 ft 488 kts 183°
2026-05-05 18:04 41.32407 -80.06723 38000 ft 488 kts 183°
2026-05-05 18:04 41.25604 -80.06736 38000 ft 488 kts 183°
2026-05-05 18:05 41.18813 -80.06753 38000 ft 488 kts 183°
2026-05-05 18:05 41.12027 -80.06772 38000 ft 488 kts 183°
2026-05-05 18:06 41.05271 -80.06795 38000 ft 487 kts 183°
2026-05-05 18:06 40.98481 -80.06821 38000 ft 487 kts 183°
2026-05-05 18:07 40.91691 -80.06851 38000 ft 487 kts 183°
2026-05-05 18:07 40.84899 -80.06883 38000 ft 487 kts 183°
2026-05-05 18:08 40.78165 -80.06919 38000 ft 487 kts 183°
2026-05-05 18:08 40.71382 -80.06958 38000 ft 487 kts 183°
2026-05-05 18:09 40.64598 -80.07000 38000 ft 487 kts 183°
2026-05-05 18:09 40.57810 -80.07045 38000 ft 487 kts 183°
2026-05-05 18:10 40.51028 -80.07093 38000 ft 487 kts 183°
2026-05-05 18:10 40.44250 -80.07144 38000 ft 487 kts 183°
2026-05-05 18:11 40.37455 -80.07198 38000 ft 487 kts 183°
2026-05-05 18:11 40.30669 -80.07255 38000 ft 487 kts 183°
2026-05-05 18:12 40.23922 -80.07315 38000 ft 487 kts 183°
2026-05-05 18:12 40.17135 -80.07378 38000 ft 487 kts 183°
2026-05-05 18:13 40.10349 -80.07445 38000 ft 487 kts 183°
2026-05-05 18:13 40.03557 -80.07515 38000 ft 487 kts 183°
2026-05-05 18:14 39.96776 -80.07587 38000 ft 487 kts 183°
2026-05-05 18:14 39.90042 -80.07662 38000 ft 487 kts 183°
2026-05-05 18:15 39.83255 -80.07741 38000 ft 487 kts 183°
2026-05-05 18:15 39.76466 -80.07822 38000 ft 487 kts 183°
2026-05-05 18:16 39.69687 -80.07907 38000 ft 487 kts 183°
2026-05-05 18:16 39.62904 -80.07994 38000 ft 487 kts 183°
2026-05-05 18:17 39.56121 -80.08085 38000 ft 487 kts 184°
2026-05-05 18:17 39.49336 -80.08178 38000 ft 487 kts 184°
2026-05-05 18:18 39.42562 -80.08275 38000 ft 487 kts 184°
2026-05-05 18:18 39.35769 -80.08374 38000 ft 487 kts 184°
2026-05-05 18:19 39.29032 -80.08476 38000 ft 487 kts 184°
2026-05-05 18:19 39.22248 -80.08581 38000 ft 487 kts 184°
2026-05-05 18:20 39.15467 -80.08689 38000 ft 487 kts 184°
2026-05-05 18:20 39.08685 -80.08801 38000 ft 487 kts 184°
2026-05-05 18:21 39.01892 -80.08915 38000 ft 487 kts 184°
2026-05-05 18:21 38.96251 -80.09012 38000 ft 487 kts 184°
2026-05-05 18:22 38.88414 -80.09718 38001 ft 484 kts 191°
2026-05-05 18:22 38.85867 -80.10245 38001 ft 483 kts 193°
2026-05-05 18:23 38.80548 -80.11573 38000 ft 482 kts 194°
2026-05-05 18:23 38.73983 -80.13402 38000 ft 482 kts 195°
2026-05-05 18:24 38.67443 -80.15299 38000 ft 482 kts 196°
2026-05-05 18:24 38.60914 -80.17298 38000 ft 482 kts 197°
2026-05-05 18:25 38.54420 -80.19399 38000 ft 481 kts 197°
2026-05-05 18:25 38.47986 -80.21570 38000 ft 481 kts 198°
2026-05-05 18:26 38.41501 -80.23789 38000 ft 481 kts 198°
2026-05-05 18:26 38.35042 -80.26010 38000 ft 481 kts 198°
2026-05-05 18:27 38.28578 -80.28238 38000 ft 481 kts 198°
2026-05-05 18:27 38.22105 -80.30473 38000 ft 481 kts 198°
2026-05-05 18:28 38.12419 -80.33824 38000 ft 481 kts 198°
2026-05-05 18:28 38.05959 -80.36063 38000 ft 481 kts 198°
2026-05-05 18:29 37.99502 -80.38304 38000 ft 481 kts 198°
2026-05-05 18:29 37.93082 -80.40536 38000 ft 481 kts 198°
2026-05-05 18:30 37.86624 -80.42785 38000 ft 481 kts 198°
2026-05-05 18:30 37.80157 -80.45039 38000 ft 481 kts 198°
2026-05-05 18:31 37.73753 -80.47275 38000 ft 481 kts 198°
2026-05-05 18:31 37.67261 -80.49544 38000 ft 481 kts 198°
2026-05-05 18:32 37.60849 -80.51788 38000 ft 481 kts 198°
2026-05-05 18:32 37.54400 -80.54049 38000 ft 481 kts 198°
2026-05-05 18:33 37.47953 -80.56312 38000 ft 481 kts 198°
2026-05-05 18:33 37.41493 -80.58583 38000 ft 481 kts 198°
2026-05-05 18:34 37.35059 -80.60847 38000 ft 481 kts 198°
2026-05-05 18:34 37.28611 -80.63120 38000 ft 481 kts 198°
2026-05-05 18:35 37.22200 -80.65383 38000 ft 481 kts 198°
2026-05-05 18:35 37.15763 -80.67658 38000 ft 481 kts 198°
2026-05-05 18:36 37.09319 -80.69939 38000 ft 481 kts 198°
2026-05-05 18:36 37.02770 -80.71743 38000 ft 485 kts 188°
2026-05-05 18:37 36.96009 -80.71955 38002 ft 488 kts 181°
2026-05-05 18:37 36.89209 -80.71580 38000 ft 489 kts 179°
2026-05-05 18:38 36.82422 -80.71033 38000 ft 489 kts 179°
2026-05-05 18:38 36.75661 -80.70438 38000 ft 489 kts 179°
2026-05-05 18:39 36.68867 -80.69826 38000 ft 489 kts 179°
2026-05-05 18:39 36.62074 -80.69253 38000 ft 489 kts 180°
2026-05-05 18:40 36.55282 -80.68928 38000 ft 488 kts 181°
2026-05-05 18:40 36.48469 -80.68712 38000 ft 488 kts 181°
2026-05-05 18:41 36.41718 -80.68532 38000 ft 488 kts 181°
2026-05-05 18:41 36.34917 -80.68363 38000 ft 488 kts 182°
2026-05-05 18:42 36.28124 -80.68199 38000 ft 488 kts 182°
2026-05-05 18:42 36.21327 -80.68039 38000 ft 488 kts 182°
2026-05-05 18:43 36.14529 -80.67881 38000 ft 488 kts 182°
2026-05-05 18:43 36.07738 -80.67726 38000 ft 488 kts 182°
2026-05-05 18:44 36.00983 -80.67574 38000 ft 488 kts 182°
2026-05-05 18:44 35.94186 -80.67423 38000 ft 488 kts 182°
2026-05-05 18:45 35.87403 -80.67275 38000 ft 488 kts 182°
2026-05-05 18:45 35.80614 -80.67130 38000 ft 488 kts 182°
2026-05-05 18:46 35.73820 -80.66986 38000 ft 488 kts 182°
2026-05-05 18:46 35.67019 -80.66845 38000 ft 488 kts 182°
2026-05-05 18:47 35.60271 -80.66707 38000 ft 488 kts 182°
2026-05-05 18:47 35.53479 -80.66571 38000 ft 488 kts 182°
2026-05-05 18:48 35.46693 -80.66436 38000 ft 488 kts 182°
2026-05-05 18:48 35.39895 -80.66304 38000 ft 488 kts 182°
2026-05-05 18:49 35.33106 -80.66175 38000 ft 488 kts 182°
2026-05-05 18:49 35.26319 -80.66048 38000 ft 488 kts 182°
2026-05-05 18:50 35.19566 -80.65923 38000 ft 488 kts 182°
2026-05-05 18:50 35.12775 -80.65801 38000 ft 488 kts 182°
2026-05-05 18:51 35.05989 -80.65680 38000 ft 488 kts 182°
2026-05-05 18:51 34.99190 -80.65562 38000 ft 488 kts 182°
2026-05-05 18:52 34.92399 -80.65446 38000 ft 488 kts 182°
2026-05-05 18:52 34.85607 -80.65333 38000 ft 488 kts 182°
2026-05-05 18:53 34.78813 -80.65221 38000 ft 488 kts 182°
2026-05-05 18:53 34.72020 -80.65112 38000 ft 488 kts 182°
2026-05-05 18:54 34.65231 -80.65005 38000 ft 488 kts 182°
2026-05-05 18:54 34.58471 -80.64901 38000 ft 488 kts 182°
2026-05-05 18:55 34.51740 -80.63749 38004 ft 494 kts 168°
2026-05-05 18:55 34.45152 -80.61276 38002 ft 496 kts 164°
2026-05-05 18:56 34.38649 -80.58486 38000 ft 496 kts 162°
2026-05-05 18:56 34.32135 -80.55791 38000 ft 494 kts 167°
2026-05-05 18:57 34.25423 -80.54265 37999 ft 489 kts 179°
2026-05-05 18:57 34.18671 -80.54508 38003 ft 485 kts 188°
2026-05-05 18:58 34.11978 -80.55508 38001 ft 484 kts 191°
2026-05-05 18:58 34.05329 -80.56731 38000 ft 484 kts 192°
2026-05-05 18:59 33.98683 -80.58025 38000 ft 483 kts 192°
2026-05-05 18:59 33.92045 -80.59340 38000 ft 483 kts 192°
2026-05-05 19:00 33.85395 -80.60665 38000 ft 483 kts 192°
2026-05-05 19:00 33.78789 -80.61986 38000 ft 483 kts 192°
2026-05-05 19:01 33.72147 -80.63318 38000 ft 483 kts 192°
2026-05-05 19:01 33.65595 -80.65070 38001 ft 481 kts 199°
2026-05-05 19:02 33.59218 -80.67477 38000 ft 480 kts 201°
2026-05-05 19:02 33.52904 -80.70087 38000 ft 479 kts 202°
2026-05-05 19:03 33.46625 -80.72752 38000 ft 479 kts 202°
2026-05-05 19:03 33.40344 -80.75441 38000 ft 479 kts 202°
2026-05-05 19:04 33.34066 -80.78138 38000 ft 479 kts 202°
2026-05-05 19:04 33.27737 -80.80684 38000 ft 480 kts 200°
2026-05-05 19:05 33.21309 -80.82887 38000 ft 481 kts 198°
2026-05-05 19:05 33.14873 -80.84969 38000 ft 481 kts 198°
2026-05-05 19:06 33.08417 -80.87023 38000 ft 481 kts 198°
2026-05-05 19:06 33.01931 -80.89078 38000 ft 481 kts 198°
2026-05-05 19:07 32.96545 -80.90784 38000 ft 481 kts 198°
2026-05-05 19:07 32.90075 -80.92834 38000 ft 481 kts 198°
2026-05-05 19:08 32.82562 -80.95218 38000 ft 481 kts 198°
2026-05-05 19:08 32.77138 -80.96941 38000 ft 481 kts 198°
2026-05-05 19:09 32.70622 -80.98654 38000 ft 483 kts 193°
2026-05-05 19:09 32.64001 -81.00042 38000 ft 483 kts 192°
2026-05-05 19:10 32.57354 -81.01333 38000 ft 483 kts 192°
2026-05-05 19:10 32.50708 -81.02576 37999 ft 484 kts 190°
2026-05-05 19:11 32.43956 -81.02992 38001 ft 487 kts 183°
2026-05-05 19:11 32.37158 -81.02824 38000 ft 488 kts 181°
2026-05-05 19:12 32.30367 -81.02485 38000 ft 489 kts 180°
2026-05-05 19:12 32.23619 -81.02126 38000 ft 488 kts 181°
2026-05-05 19:13 32.16823 -81.01985 38000 ft 488 kts 182°
2026-05-05 19:13 32.10031 -81.01951 38000 ft 487 kts 183°
2026-05-05 19:14 32.03244 -81.01950 38000 ft 487 kts 183°
2026-05-05 19:14 31.96450 -81.01961 38000 ft 487 kts 183°
2026-05-05 19:15 31.89668 -81.01977 38000 ft 487 kts 183°
2026-05-05 19:15 31.83422 -81.01994 38000 ft 487 kts 183°
2026-05-05 19:16 31.76634 -81.02014 38000 ft 487 kts 183°
2026-05-05 19:16 31.69842 -81.02037 38000 ft 487 kts 183°
2026-05-05 19:17 31.63054 -81.02061 38000 ft 487 kts 183°
2026-05-05 19:17 31.56295 -81.02088 38000 ft 487 kts 183°
2026-05-05 19:18 31.49511 -81.02116 38000 ft 487 kts 183°
2026-05-05 19:18 31.42716 -81.02147 38000 ft 487 kts 183°
2026-05-05 19:19 31.35938 -81.02180 38000 ft 487 kts 183°
2026-05-05 19:19 31.32632 -81.02592 37993 ft 481 kts 196°
2026-05-05 19:19 31.29545 -81.03991 37997 ft 474 kts 212°
2026-05-05 19:20 31.26912 -81.06285 37879 ft 472 kts 226°
2026-05-05 19:20 31.24886 -81.09290 37407 ft 472 kts 241°
2026-05-05 19:20 31.23564 -81.12790 36971 ft 470 kts 252°
2026-05-05 19:20 31.22677 -81.16459 36537 ft 468 kts 256°
2026-05-05 19:21 31.21576 -81.20032 36087 ft 469 kts 244°
2026-05-05 19:21 31.19712 -81.23155 35640 ft 472 kts 229°
2026-05-05 19:21 31.17169 -81.25584 35197 ft 477 kts 214°
2026-05-05 19:21 31.14173 -81.27188 34767 ft 482 kts 201°
2026-05-05 19:22 31.10898 -81.28167 34336 ft 486 kts 194°
2026-05-05 19:22 31.07529 -81.28764 33896 ft 488 kts 189°
2026-05-05 19:22 31.04128 -81.29040 33456 ft 491 kts 185°
2026-05-05 19:22 31.00703 -81.29087 33016 ft 492 kts 182°
2026-05-05 19:23 30.97268 -81.29001 32574 ft 494 kts 181°
2026-05-05 19:23 30.93834 -81.28845 32132 ft 494 kts 180°
2026-05-05 19:23 30.90394 -81.28651 31690 ft 495 kts 180°
2026-05-05 19:23 30.86951 -81.28436 31248 ft 496 kts 180°
2026-05-05 19:24 30.83488 -81.28209 30805 ft 497 kts 179°
2026-05-05 19:24 30.80069 -81.27980 30367 ft 498 kts 179°
2026-05-05 19:24 30.76616 -81.27745 30119 ft 496 kts 179°
2026-05-05 19:24 30.73169 -81.27509 30034 ft 496 kts 179°
2026-05-05 19:25 30.66270 -81.27036 29997 ft 495 kts 179°
2026-05-05 19:25 30.62853 -81.26799 29572 ft 485 kts 179°
2026-05-05 19:25 30.59567 -81.26567 29114 ft 472 kts 179°
2026-05-05 19:26 30.57815 -81.26441 28867 ft 466 kts 179°
2026-05-05 19:26 30.54723 -81.26215 28425 ft 455 kts 179°
2026-05-05 19:26 30.51595 -81.25983 27970 ft 447 kts 179°
2026-05-05 19:26 30.48516 -81.25752 27519 ft 440 kts 179°
2026-05-05 19:27 30.45472 -81.25528 27069 ft 435 kts 180°
2026-05-05 19:27 30.42460 -81.25353 26620 ft 431 kts 181°
2026-05-05 19:27 30.39481 -81.25212 26173 ft 427 kts 181°
2026-05-05 19:27 30.36516 -81.25086 25725 ft 424 kts 181°
2026-05-05 19:28 30.33579 -81.24969 25278 ft 420 kts 181°
2026-05-05 19:28 30.30666 -81.24855 24831 ft 417 kts 181°
2026-05-05 19:28 30.27776 -81.24744 24385 ft 414 kts 181°
2026-05-05 19:28 30.24902 -81.24632 23938 ft 412 kts 181°
2026-05-05 19:29 30.22077 -81.24522 23495 ft 409 kts 181°
2026-05-05 19:29 30.19208 -81.24409 23142 ft 403 kts 181°
2026-05-05 19:29 30.16426 -81.24297 23044 ft 398 kts 181°
2026-05-05 19:29 30.13664 -81.24184 23005 ft 395 kts 181°
2026-05-05 19:30 30.10939 -81.24071 22996 ft 389 kts 181°
2026-05-05 19:30 30.08257 -81.23956 22995 ft 383 kts 181°
2026-05-05 19:30 30.05610 -81.23841 22995 ft 379 kts 181°
2026-05-05 19:30 30.02979 -81.23725 22997 ft 377 kts 181°
2026-05-05 19:31 30.00368 -81.23609 22998 ft 375 kts 181°
2026-05-05 19:31 29.97767 -81.23494 22999 ft 374 kts 181°
2026-05-05 19:31 29.95169 -81.23378 22999 ft 373 kts 181°
2026-05-05 19:31 29.92604 -81.23263 22999 ft 373 kts 181°
2026-05-05 19:32 29.90003 -81.23148 23000 ft 373 kts 181°
2026-05-05 19:32 29.87404 -81.23025 23000 ft 373 kts 181°
2026-05-05 19:32 29.84809 -81.22821 22946 ft 376 kts 179°
2026-05-05 19:32 29.82188 -81.22555 22472 ft 381 kts 178°
2026-05-05 19:33 29.79568 -81.22257 22021 ft 373 kts 178°
2026-05-05 19:33 29.77024 -81.21949 21572 ft 363 kts 178°
2026-05-05 19:33 29.74544 -81.21637 21124 ft 355 kts 178°
2026-05-05 19:33 29.72108 -81.21324 20677 ft 349 kts 178°
2026-05-05 19:34 29.69715 -81.21013 20232 ft 344 kts 178°
2026-05-05 19:34 29.67338 -81.20701 19787 ft 340 kts 178°
2026-05-05 19:34 29.65031 -81.20396 19350 ft 337 kts 178°
2026-05-05 19:35 29.60406 -81.19783 18465 ft 332 kts 178°
2026-05-05 19:35 29.58118 -81.19481 18023 ft 329 kts 178°
2026-05-05 19:35 29.55841 -81.19239 17580 ft 326 kts 179°
2026-05-05 19:35 29.53588 -81.19044 17139 ft 324 kts 180°
2026-05-05 19:36 29.51347 -81.18869 16696 ft 321 kts 180°
2026-05-05 19:36 29.49118 -81.18703 16254 ft 319 kts 180°
2026-05-05 19:36 29.46910 -81.18542 15812 ft 317 kts 180°
2026-05-05 19:36 29.44713 -81.18382 15369 ft 315 kts 180°
2026-05-05 19:37 29.42537 -81.18225 14928 ft 312 kts 180°
2026-05-05 19:37 29.40389 -81.18069 14494 ft 305 kts 180°
2026-05-05 19:37 29.38299 -81.17914 14047 ft 297 kts 180°
2026-05-05 19:37 29.36254 -81.17759 13598 ft 291 kts 180°
2026-05-05 19:38 29.34926 -81.17658 13303 ft 287 kts 180°
2026-05-05 19:38 29.32315 -81.17464 12715 ft 282 kts 181°
2026-05-05 19:38 29.30366 -81.17344 12271 ft 279 kts 181°
2026-05-05 19:38 29.28436 -81.17230 11827 ft 276 kts 181°
2026-05-05 19:39 29.26525 -81.17118 11385 ft 274 kts 181°
2026-05-05 19:39 29.24630 -81.17009 10943 ft 272 kts 181°
2026-05-05 19:39 29.22753 -81.16901 10502 ft 270 kts 181°
2026-05-05 19:39 29.20887 -81.16740 10096 ft 269 kts 174°
2026-05-05 19:40 29.19092 -81.16222 10074 ft 267 kts 167°
2026-05-05 19:40 29.17339 -81.15550 10004 ft 264 kts 165°
2026-05-05 19:40 29.15570 -81.14820 9564 ft 274 kts 164°
2026-05-05 19:40 29.13788 -81.14067 9126 ft 273 kts 164°
2026-05-05 19:41 29.12008 -81.13339 8680 ft 270 kts 165°
2026-05-05 19:41 29.10235 -81.12643 8233 ft 268 kts 165°
2026-05-05 19:41 29.08502 -81.11971 8060 ft 258 kts 166°
2026-05-05 19:41 29.06810 -81.11316 8010 ft 256 kts 166°
2026-05-05 19:42 29.05114 -81.10679 8003 ft 257 kts 166°
2026-05-05 19:42 29.03423 -81.10058 8002 ft 259 kts 167°
2026-05-05 19:42 29.01707 -81.09431 8002 ft 260 kts 167°
2026-05-05 19:42 28.99975 -81.08819 8000 ft 259 kts 169°
2026-05-05 19:43 28.98221 -81.08370 8003 ft 258 kts 173°
2026-05-05 19:43 28.96448 -81.08012 8001 ft 258 kts 175°
2026-05-05 19:43 28.94674 -81.07684 8000 ft 258 kts 175°
2026-05-05 19:43 28.92901 -81.07368 8000 ft 258 kts 176°
2026-05-05 19:44 28.91113 -81.07171 7914 ft 259 kts 181°
2026-05-05 19:44 28.89315 -81.07274 7521 ft 254 kts 192°
2026-05-05 19:44 28.87615 -81.07596 7118 ft 244 kts 196°
2026-05-05 19:44 28.85964 -81.08056 6730 ft 244 kts 199°
2026-05-05 19:45 28.84349 -81.08568 6342 ft 244 kts 200°
2026-05-05 19:45 28.82725 -81.09105 6096 ft 240 kts 200°
2026-05-05 19:45 28.81119 -81.09648 6018 ft 240 kts 200°
2026-05-05 19:45 28.79530 -81.10190 6002 ft 238 kts 200°
2026-05-05 19:46 28.77945 -81.10734 6000 ft 237 kts 200°
2026-05-05 19:46 28.76363 -81.11277 6003 ft 239 kts 201°
2026-05-05 19:46 28.74756 -81.11832 6004 ft 242 kts 201°
2026-05-05 19:46 28.73136 -81.12392 6003 ft 244 kts 201°
2026-05-05 19:47 28.71503 -81.12945 6001 ft 246 kts 199°
2026-05-05 19:47 28.69835 -81.13413 6002 ft 247 kts 197°
2026-05-05 19:47 28.68148 -81.13840 5994 ft 248 kts 196°
2026-05-05 19:47 28.66425 -81.14266 5638 ft 256 kts 195°
2026-05-05 19:48 28.64698 -81.14703 5273 ft 254 kts 195°
2026-05-05 19:48 28.62996 -81.15148 5087 ft 246 kts 195°
2026-05-05 19:48 28.61368 -81.15586 5001 ft 234 kts 195°
2026-05-05 19:48 28.59810 -81.16009 4993 ft 228 kts 195°
2026-05-05 19:49 28.58297 -81.16397 4993 ft 225 kts 192°
2026-05-05 19:49 28.57245 -81.16584 4853 ft 229 kts 189°
2026-05-05 19:49 28.55141 -81.16877 4331 ft 226 kts 187°
2026-05-05 19:49 28.53619 -81.17085 4085 ft 218 kts 187°
2026-05-05 19:50 28.52121 -81.17298 4014 ft 215 kts 188°
2026-05-05 19:50 28.50642 -81.17513 4002 ft 214 kts 188°
2026-05-05 19:50 28.49160 -81.17730 3998 ft 214 kts 188°
2026-05-05 19:50 28.47652 -81.17953 3698 ft 220 kts 187°
2026-05-05 19:51 28.46152 -81.18180 3404 ft 216 kts 188°
2026-05-05 19:51 28.45165 -81.18332 3209 ft 214 kts 188°
2026-05-05 19:51 28.43712 -81.18559 3068 ft 210 kts 188°
2026-05-05 19:51 28.42275 -81.18785 3010 ft 208 kts 188°
2026-05-05 19:52 28.40843 -81.19010 3002 ft 207 kts 188°
2026-05-05 19:52 28.39412 -81.19208 3000 ft 208 kts 184°
2026-05-05 19:52 28.37959 -81.19258 2996 ft 203 kts 180°
2026-05-05 19:52 28.36581 -81.19246 2989 ft 198 kts 179°
2026-05-05 19:53 28.35218 -81.19221 2992 ft 194 kts 179°
2026-05-05 19:53 28.33862 -81.19192 3003 ft 196 kts 179°
2026-05-05 19:53 28.32480 -81.19163 3009 ft 201 kts 179°
2026-05-05 19:53 28.31067 -81.19133 3007 ft 204 kts 179°
2026-05-05 19:54 28.29641 -81.19102 3004 ft 206 kts 179°
2026-05-05 19:54 28.28203 -81.19122 2996 ft 207 kts 188°
2026-05-05 19:54 28.26849 -81.19639 3013 ft 203 kts 207°
2026-05-05 19:54 28.25754 -81.20597 2980 ft 198 kts 233°
2026-05-05 19:55 28.25259 -81.22004 3011 ft 192 kts 260°
2026-05-05 19:55 28.25153 -81.23524 2901 ft 194 kts 272°
2026-05-05 19:55 28.25405 -81.24993 2796 ft 191 kts 288°
2026-05-05 19:55 28.25897 -81.26381 2717 ft 189 kts 295°
2026-05-05 19:56 28.26522 -81.27690 2698 ft 191 kts 308°
2026-05-05 19:56 28.27501 -81.28713 2702 ft 194 kts 324°
2026-05-05 19:56 28.28724 -81.29489 2215 ft 204 kts 342°
2026-05-05 19:56 28.30070 -81.29717 2126 ft 188 kts 354°
2026-05-05 19:57 28.31389 -81.29926 2122 ft 197 kts 354°
2026-05-05 19:57 28.32780 -81.29927 1726 ft 205 kts
2026-05-05 19:57 28.34191 -81.29755 1148 ft 200 kts
2026-05-05 19:57 28.35531 -81.29613 822 ft 194 kts
2026-05-05 19:58 28.36867 -81.29581 605 ft 190 kts 360°
2026-05-05 19:58 28.38185 -81.29575 548 ft 189 kts
2026-05-05 19:58 28.39545 -81.29566 332 ft 194 kts
2026-05-05 19:58 28.40862 -81.29565 155 ft 193 kts 359°
2026-05-05 19:59 28.42039 -81.29571 114 ft 157 kts
2026-05-05 19:59 28.43005 -81.29563 114 ft 96 kts 359°
2026-05-05 19:59 28.43406 -81.29608 114 ft 19 kts 308°
2026-05-05 19:59 28.43398 -81.29759 114 ft 23 kts 214°
2026-05-05 20:00 28.43190 -81.29792 114 ft 27 kts 180°
2026-05-05 20:00 28.43052 -81.29795 114 ft 13 kts 182°
2026-05-05 20:00 28.43013 -81.29796 114 ft 0 kts 182°